#timestamp,LO_Frequency,Hit,StdDev 
1541311215.8,286046997.0,N
1541311235.6,286046997.4,N
1541311255.4,286046995.1,Y
1541311275.3,286046997.7,P
1541311295.1,286046996.6,P
1541311315.8,286046999.1,N
1541311335.7,286046998.8,N
1541311355.5,286046998.5,N
1541311375.4,286046996.9,Y
1541311395.2,286046998.7,P
1541311415.0,286046999.5,N
1541311415.9,286046999.5,N
1541311435.8,286046998.0,Y
1541311455.6,286046997.3,P
1541311475.5,286046996.8,P
1541311495.3,286046996.6,P
1541311515.1,286046999.5,N
1541311535.9,286047000.8,N
1541311555.7,286046997.5,N
1541311575.6,286046997.8,N
1541311595.4,286046996.5,N
1541311615.2,286046995.0,Y
1541311635.1,286046998.8,P
1541311636.0,286046998.8,N
1541311655.8,286046996.7,P
1541311675.6,286046996.8,Y
1541311695.5,286047001.2,P
1541311715.3,286047001.2,N
1541311735.2,286046998.1,N
1541311755.9,286047001.2,N
1541311775.7,286047000.7,N
1541311795.6,286047000.4,N
1541311815.4,286046998.1,N
1541311835.2,286046998.2,N
1541311855.1,286046998.4,N
1541311856.0,286046998.4,N
1541311875.8,286046998.3,N
1541311895.7,286046998.4,N
1541311915.5,286046997.0,N
1541311935.3,286046996.6,N
1541311955.2,286046995.2,Y
1541311975.0,286046998.1,P
1541311975.9,286046998.1,P
1541311995.8,286046999.0,N
1541312015.6,286046997.0,Y
1541312035.4,286046999.0,P
1541312055.3,286046998.5,P
1541312075.1,286046998.4,P
1541312095.9,286047000.7,N
1541312115.7,286047001.5,N
1541312135.5,286047001.9,N
1541312155.4,286047000.3,N
1541312175.2,286046999.6,N
1541312195.0,286046999.6,N
1541312195.9,286046999.6,N
1541312215.8,286046996.6,Y
1541312235.6,286046999.4,P
1541312255.5,286046998.3,P
1541312275.3,286046999.2,N
1541312295.1,286046997.2,Y
1541312315.9,286046998.2,P
1541312335.7,286046998.6,N
1541312355.6,286046998.5,P
1541312375.4,286046998.2,Y
1541312395.2,286047002.3,P
1541312415.1,286047000.8,N
1541312416.0,286047000.8,N
1541312435.8,286046998.1,N
1541312455.6,286046996.5,N
1541312475.5,286046999.5,N
1541312495.3,286046999.4,N
1541312515.2,286046998.9,N
1541312535.0,286046998.4,N
1541312535.9,286046998.4,N
1541312555.7,286047001.1,N
1541312575.6,286046998.3,N
1541312595.4,286046998.6,N
1541312615.3,286046997.0,N
1541312635.1,286046999.4,N
1541312636.0,286046999.4,N
1541312655.8,286046997.3,N
1541312675.7,286046997.5,N
1541312695.5,286046995.4,Y
1541312715.4,286046997.3,P
1541312735.2,286046997.4,P
1541312755.0,286046998.7,N
1541312755.9,286046998.7,N
1541312775.8,286046999.6,N
1541312795.6,286046999.4,N
1541312815.4,286046999.3,N
1541312835.3,286046996.8,Y
1541312855.1,286046998.8,P
1541312875.9,286047002.3,P
1541312895.7,286047000.9,N
1541312915.5,286046998.9,N
1541312935.4,286046996.7,N
1541312955.2,286046997.7,N
1541312975.0,286046995.2,N
1541312976.0,286046995.2,N
1541312995.8,286046997.6,N
1541313015.6,286046996.9,N
1541313035.5,286046997.3,N
1541313055.3,286047000.9,N
1541313075.1,286047000.4,N
1541313095.9,286047000.5,N
1541313115.7,286046999.1,N
1541313135.6,286046996.5,N
1541313155.4,286046999.5,N
1541313175.2,286046996.8,N
1541313195.1,286046996.3,N
1541313196.0,286046996.3,N
1541313215.8,286046996.2,N
1541313235.6,286046995.9,N
1541313255.5,286046995.8,N
1541313275.3,286046994.9,N
1541313295.2,286046996.0,N
1541313315.9,286046994.0,N
1541313335.7,286046993.0,Y
1541313355.6,286046993.4,P
1541313375.4,286046991.8,P
1541313395.2,286046993.4,N
1541313415.1,286046994.6,N
1541313416.0,286046994.6,N
1541313435.8,286046991.8,Y
1541313455.7,286046999.3,P
1541313475.5,286046999.6,N
1541313495.3,286046998.3,N
1541313515.2,286046998.9,N
1541313535.0,286046998.5,N
1541313535.9,286046998.5,N
1541313555.8,286046998.9,N
1541313575.6,286046998.4,N
1541313595.4,286046996.9,N
1541313615.3,286046997.3,N
1541313635.1,286046997.8,N
1541313655.8,286046997.1,N
1541313675.7,286046994.9,Y
1541313695.5,286046999.2,P
1541313715.4,286047000.6,N
1541313735.2,286047000.2,N
1541313755.0,286046998.1,N
1541313755.9,286046998.1,N
1541313775.8,286047000.5,N
1541313795.6,286046999.7,N
1541313815.5,286047000.0,N
1541313835.3,286046998.6,N
1541313855.1,286046999.3,N
1541313875.9,286047000.4,N
1541313895.7,286047000.8,N
1541313915.5,286046998.8,N
1541313935.4,286046998.8,N
1541313955.2,286046998.8,N
1541313975.1,286046999.3,N
1541313976.0,286046999.3,N
1541313995.8,286046997.0,Y
1541314015.6,286046998.8,P
1541314035.5,286046999.6,N
1541314055.3,286046996.5,P
1541314075.2,286046997.0,N
1541314095.9,286046998.9,N
1541314115.7,286046999.5,N
1541314135.6,286046999.2,N
1541314155.4,286046996.9,N
1541314175.2,286046997.7,N
1541314195.1,286046995.8,Y
1541314196.0,286046995.8,P
1541314215.8,286046994.9,P
1541314235.7,286046996.3,N
1541314255.5,286046993.3,Y
1541314275.3,286046999.2,P
1541314295.2,286046998.8,N
1541314315.0,286047000.5,N
1541314315.9,286047000.5,N
1541314335.8,286047002.4,N
1541314355.6,286046999.9,N
1541314375.4,286047000.5,N
1541314395.3,286047000.9,N
1541314415.1,286046998.1,N
1541314435.8,286047002.3,N
1541314455.7,286047000.4,N
1541314475.5,286047000.9,N
1541314495.4,286047000.0,N
1541314515.2,286046998.1,N
1541314535.0,286046997.3,N
1541314535.9,286046997.3,N
1541314555.8,286046997.2,N
1541314575.6,286046995.8,N
1541314595.5,286046995.3,N
1541314615.3,286046997.8,N
1541314635.1,286046999.6,N
1541314655.9,286046996.9,N
1541314675.7,286046997.6,N
1541314695.5,286046997.6,N
1541314715.4,286046997.0,N
1541314735.2,286046996.5,N
1541314755.1,286046997.7,N
1541314756.0,286046997.7,N
1541314775.8,286046995.3,N
1541314795.6,286046995.0,N
